SP7QPD-1 Weather Reports


time (UTC)temp
F
wind
direction
speed
knots
gust
knots
rain 1hr
in
rain 24hr
in
rain mn
in
humidity
%
barometer
mb
20260508053350 49 0 48.7 65.2 0.00 0.00 0.00 48 1014.2
20260508052350 49 0 48.7 65.2 0.00 0.00 0.00 48 1014.1
20260508051350 49 0 48.7 65.2 0.00 0.00 0.00 48 1014.0
20260508050350 49 0 48.7 65.2 0.00 0.00 0.00 48 1014.0
20260508045350 49 90 48.7 65.2 0.00 0.00 0.00 48 1013.9
20260508044350 49 90 48.7 65.2 0.00 0.00 0.00 47 1013.9
20260508043349 49 0 48.7 65.2 0.00 0.00 0.00 47 1013.8
20260508042349 49 0 48.7 65.2 0.00 0.00 0.00 47 1013.6
20260508041349 49 0 48.7 65.2 0.00 0.00 0.00 46 1013.7
20260508040349 49 0 48.7 65.2 0.00 0.00 0.00 46 1013.5
20260508035349 49 0 48.7 65.2 0.00 0.00 0.00 45 1013.5
20260508034349 49 0 48.7 65.2 0.00 0.00 0.00 44 1013.5
20260508033349 49 45 48.7 65.2 0.00 0.00 0.00 43 1013.3
20260508032349 49 0 48.7 65.2 0.00 0.00 0.00 42 1013.1
20260508031349 49 0 48.7 65.2 0.00 0.00 0.00 42 1013.1
20260508030349 49 0 48.7 65.2 0.00 0.00 0.00 42 1013.1
20260508025349 49 0 48.7 65.2 0.00 0.00 0.00 43 1013.2
20260508024349 49 22 48.7 65.2 0.00 0.00 0.00 43 1013.2
20260508023348 49 0 48.7 65.2 0.00 0.00 0.00 43 1013.1
20260508022348 49 0 48.7 65.2 0.00 0.00 0.00 43 1013.0
20260508021348 49 22 48.7 65.2 0.00 0.00 0.00 45 1012.9
20260508020348 50 0 48.7 65.2 0.00 0.00 0.00 47 1013.0
20260508015348 50 0 48.7 65.2 0.00 0.00 0.00 48 1013.0
20260508014348 50 0 48.7 65.2 0.00 0.00 0.00 49 1013.0
20260508013348 50 0 48.7 65.2 0.00 0.00 0.00 52 1013.0
20260508012348 50 0 48.7 65.2 0.00 0.00 0.00 53 1013.0
20260508011348 50 0 48.7 65.2 0.00 0.00 0.00 54 1013.0
20260508010348 50 22 48.7 65.2 0.00 0.00 0.00 54 1012.9
20260508005348 51 0 48.7 65.2 0.00 0.00 0.00 55 1012.7
20260508004347 51 0 48.7 65.2 0.00 0.00 0.00 56 1012.7
20260508003347 51 0 48.7 65.2 0.00 0.00 0.00 57 1012.6
20260508002347 51 0 48.7 65.2 0.00 0.00 0.00 58 1012.7
20260508001347 51 0 48.7 65.2 0.00 0.00 0.00 58 1013.0
20260508000349 51 0 48.7 65.2 0.00 0.00 0.00 58 1012.7
20260507235347 51 0 48.7 65.2 0.00 0.00 0.00 58 1012.6
20260507234349 51 0 48.7 65.2 0.00 0.00 0.00 60 1012.7
20260507233347 51 0 48.7 65.2 0.00 0.00 0.00 60 1012.7
20260507232347 51 0 48.7 65.2 0.00 0.00 0.00 60 1012.6
20260507231347 51 0 48.7 65.2 0.00 0.00 0.00 60 1012.7
20260507230347 51 0 48.7 65.2 0.00 0.00 0.00 60 1012.6
20260507225347 52 0 48.7 65.2 0.00 0.00 0.00 60 1012.6
20260507224346 52 0 48.7 65.2 0.00 0.00 0.00 60 1012.6
20260507223346 52 0 48.7 65.2 0.00 0.00 0.00 59 1012.4
20260507222346 52 0 48.7 65.2 0.00 0.00 0.00 59 1012.4
20260507221346 52 0 48.7 65.2 0.00 0.00 0.00 59 1012.5
20260507220346 52 0 48.7 65.2 0.00 0.00 0.00 59 1012.5
20260507215346 52 0 48.7 65.2 0.00 0.00 0.00 58 1012.3
20260507214346 52 0 48.7 65.2 0.00 0.00 0.00 59 1012.3
20260507213346 52 0 48.7 65.2 0.00 0.00 0.00 59 1012.2
20260507212346 52 0 48.7 65.2 0.00 0.00 0.00 58 1012.3
20260507211346 53 0 48.7 65.2 0.00 0.00 0.00 58 1012.2
20260507210346 53 202 48.7 65.2 0.00 0.00 0.00 57 1012.2
20260507205346 53 0 48.7 65.2 0.00 0.00 0.00 57 1012.0
20260507204345 53 180 48.7 65.2 0.00 0.00 0.00 57 1012.0
20260507203345 54 0 48.7 65.2 0.00 0.00 0.00 58 1011.8
20260507202346 54 0 48.7 65.2 0.00 0.00 0.00 58 1011.9
20260507201345 54 0 48.7 65.2 0.00 0.00 0.00 56 1011.8
20260507200345 54 0 48.7 65.2 0.00 0.00 0.00 56 1011.8
20260507195345 54 0 48.7 65.2 0.00 0.00 0.00 55 1011.8
20260507194345 54 157 48.7 65.2 0.00 0.00 0.00 54 1011.8
20260507193345 55 0 48.7 65.2 0.00 0.00 0.00 55 1011.6
20260507192345 55 0 48.7 65.2 0.00 0.00 0.00 56 1011.7
20260507191345 55 0 48.7 65.2 0.00 0.00 0.00 57 1011.5
20260507190345 55 0 48.7 65.2 0.00 0.00 0.00 57 1011.2
20260507185344 55 112 48.7 65.2 0.00 0.00 0.00 57 1011.0
20260507184344 55 0 48.7 65.2 0.00 0.00 0.00 57 1010.6
20260507183344 56 0 48.7 65.2 0.00 0.00 0.00 56 1010.6
20260507182344 56 0 48.7 65.2 0.00 0.00 0.00 58 1010.5
20260507181344 56 0 48.7 65.2 0.00 0.00 0.00 56 1010.4
20260507180344 56 0 48.7 65.2 0.00 0.00 0.00 56 1010.2
20260507175344 57 0 48.7 65.2 0.00 0.00 0.00 56 1010.0
20260507174344 57 0 48.7 65.2 0.00 0.00 0.00 57 1010.1
20260507173344 57 0 48.7 65.2 0.00 0.00 0.00 58 1009.9
20260507172344 58 0 48.7 65.2 0.00 0.00 0.00 61 1009.7
20260507171344 58 22 48.7 65.2 0.00 0.00 0.00 61 1009.7
20260507170344 58 0 48.7 65.2 0.00 0.00 0.00 62 1010.0
20260507165343 59 0 48.7 65.2 0.00 0.00 0.00 62 1009.8
20260507164343 59 0 48.7 65.2 0.00 0.00 0.00 63 1009.6
20260507163343 60 0 48.7 65.2 0.00 0.00 0.00 64 1009.3
20260507162343 60 0 48.7 65.2 0.00 0.00 0.00 64 1009.5
20260507161343 60 0 48.7 65.2 0.00 0.00 0.00 64 1009.1
20260507160343 61 0 48.7 65.2 0.00 0.00 0.00 63 1009.1
20260507155343 61 202 48.7 65.2 0.00 0.00 0.00 64 1009.1
20260507154343 61 0 48.7 65.2 0.00 0.00 0.00 65 1009.0
20260507153343 62 0 48.7 65.2 0.00 0.00 0.00 66 1008.8
20260507152343 62 0 48.7 65.2 0.00 0.00 0.00 69 1008.8
20260507151343 62 0 48.7 65.2 0.00 0.00 0.00 71 1009.0
20260507150342 63 0 48.7 65.2 0.00 0.00 0.00 72 1008.7
20260507145342 63 0 48.7 65.2 0.00 0.00 0.00 70 1008.7
20260507144342 64 0 48.7 65.2 0.00 0.00 0.00 70 1008.8
20260507143342 64 0 48.7 65.2 0.00 0.00 0.00 69 1008.7
20260507142342 64 0 48.7 65.2 0.00 0.00 0.00 70 1008.9
20260507141342 64 0 48.7 65.2 0.00 0.00 0.00 69 1008.9
20260507140342 65 0 48.7 65.2 0.00 0.00 0.00 70 1008.8
20260507135342 65 180 48.7 65.2 0.00 0.00 0.00 70 1008.8
20260507134342 65 0 48.7 65.2 0.00 0.00 0.00 70 1008.8
20260507133342 65 0 48.7 65.2 0.00 0.00 0.00 70 1008.9
20260507132342 65 0 48.7 65.2 0.00 0.00 0.00 71 1008.8
20260507131342 64 0 48.7 65.2 0.00 0.00 0.00 71 1008.7
20260507130341 64 180 48.7 65.2 0.00 0.00 0.00 71 1008.5
20260507125341 64 0 48.7 65.2 0.00 0.00 0.00 72 1008.6
20260507124341 64 0 48.7 65.2 0.00 0.00 0.00 72 1008.8
20260507123341 63 0 48.7 65.2 0.00 0.00 0.00 72 1008.7
20260507122341 62 0 48.7 65.2 0.00 0.00 0.00 72 1008.9
20260507121341 62 0 48.7 65.2 0.00 0.00 0.00 71 1009.0
20260507120341 62 0 48.7 65.2 0.00 0.00 0.00 71 1008.9
20260507115341 62 0 48.7 65.2 0.00 0.00 0.00 69 1009.0
20260507114341 61 0 48.7 65.2 0.00 0.00 0.00 69 1009.0
20260507113341 60 0 48.7 65.2 0.00 0.00 0.00 68 1009.1
20260507112341 60 0 48.7 65.2 0.00 0.00 0.00 68 1009.1
20260507111340 60 0 48.7 65.2 0.00 0.00 0.00 66 1009.1
20260507110340 60 202 48.7 65.2 0.00 0.00 0.00 66 1008.9
20260507105340 59 0 48.7 65.2 0.00 0.00 0.00 65 1008.9
20260507104340 59 0 48.7 65.2 0.00 0.00 0.00 64 1008.8
20260507103340 59 0 48.7 65.2 0.00 0.00 0.00 63 1008.7
20260507102340 59 180 48.7 65.2 0.00 0.00 0.00 62 1008.6
20260507101340 59 0 48.7 65.2 0.00 0.00 0.00 59 1008.4
20260507100340 58 0 48.7 65.2 0.00 0.00 0.00 58 1008.3
20260507095340 58 0 48.7 65.2 0.00 0.00 0.00 57 1008.2
20260507094340 58 0 48.7 65.2 0.00 0.00 0.00 57 1008.1
20260507093340 58 0 48.7 65.2 0.00 0.00 0.00 58 1007.9
20260507092340 58 0 48.7 65.2 0.00 0.00 0.00 58 1007.9
20260507091339 59 0 48.7 65.2 0.00 0.00 0.00 60 1007.6
20260507090339 59 90 48.7 65.2 0.00 0.00 0.00 61 1007.5
20260507085339 59 0 48.7 65.2 0.00 0.00 0.00 61 1007.2
20260507084339 59 0 48.7 65.2 0.00 0.00 0.00 61 1007.2
20260507083339 59 0 48.7 65.2 0.00 0.00 0.00 60 1007.0
20260507082339 59 0 48.7 65.2 0.00 0.00 0.00 60 1006.6
20260507081339 60 22 48.7 65.2 0.00 0.00 0.00 58 1006.5
20260507080339 60 0 48.7 65.2 0.00 0.00 0.00 57 1006.4
20260507075339 60 0 48.7 65.2 0.00 0.00 0.00 56 1006.3
20260507074339 59 0 48.7 65.2 0.00 0.00 0.00 56 1006.2
20260507073339 59 0 48.7 65.2 0.00 0.00 0.00 56 1006.1
20260507072338 59 0 48.7 65.2 0.00 0.00 0.00 58 1006.0
20260507071338 60 0 48.7 65.2 0.00 0.00 0.00 60 1005.9
20260507070338 60 0 48.7 65.2 0.00 0.00 0.00 60 1005.8
20260507065338 60 0 48.7 65.2 0.00 0.00 0.00 60 1005.6
20260507064338 60 0 48.7 65.2 0.00 0.00 0.00 60 1005.6
20260507063338 60 0 48.7 65.2 0.00 0.00 0.00 60 1005.5
20260507062338 60 0 48.7 65.2 0.00 0.00 0.00 61 1005.4
20260507061338 60 0 48.7 65.2 0.00 0.00 0.00 59 1005.3
20260507060338 60 0 48.7 65.2 0.00 0.00 0.00 58 1005.2
20260507055338 59 180 48.7 65.2 0.00 0.00 0.00 56 1005.1
20260507054338 59 0 48.7 65.2 0.00 0.00 0.00 51 1005.1